Cloud_Cover
0 2 6 5 5 5 5 5 67 94 96 100 80 97 100 36 8 5 4 1 11 7 52 97 8 6 0 0 0 0 0 98 57
5 5 5 5 5 14 33 5 63 98 100 100 100 100 100 76 78 38 5 8 13 36 6 1 9 0 0 0 0 0 77 27 100
12 5 5 1 4 5 24 5 84 79 86 100 100 100 100 100 90 73 42 41 7 91 100 8 9 0 0 5 12 0 85 76 100
10 5 26 3 3 8 5 6 10 80 62 84 96 100 100 100 100 100 74 61 20 78 6 12 13 2 6 32 12 17 100 100 100
100 100 100 100 62 24 60 78 97 51 47 84 100 100 100 100 100 100 50 22 47 8 87 22 20 74 48 14 80 4 100 100 99
100 100 29 100 100 100 90 88 88 100 100 82 96 100 100 100 100 100 100 96 82 100 12 35 37 80 63 64 5 100 100 100 100
100 100 94 99 100 100 100 95 100 97 100 100 100 100 90 100 100 100 100 100 100 100 100 39 6 6 3 5 17 88 96 100 100
100 100 100 100 100 100 100 96 100 100 100 77 100 97 91 100 100 100 100 100 100 100 100 100 77 7 5 6 66 100 100 100 100
100 100 100 100 100 99 100 100 100 100 100 100 100 100 100 100 100 100 100 100 100 100 100 100 100 100 84 6 5 97 100 100 100
100 99 100 100 100 100 100 100 100 100 96 99 96 90 100 100 100 100 93 74 100 100 100 100 100 100 97 100 87 78 100 100 100
100 100 100 100 100 99 100 100 100 100 100 100 100 100 100 100 100 100 100 100 100 100 100 100 100 100 100 41 100 100 99 100 100
100 100 100 100 100 97 96 100 100 100 100 100 100 100 100 100 100 100 100 100 100 100 100 100 100 95 100 100 98 27 85 33 31
100 100 100 100 100 100 100 100 100 100 100 100 100 100 100 100 100 99 100 100 100 100 100 100 100 100 100 100 95 32 52 52 15
100 100 100 100 100 100 100 100 100 100 100 100 100 100 100 100 100 100 100 100 100 100 100 100 100 100 100 100 100 100 100 97 100
1 49 100 100 100 100 100 100 100 100 100 100 100 100 100 100 100 100 100 100 100 100 100 100 100 100 100 100 100 75 26 52 26
0 0 0 77 100 100 100 100 100 100 100 100 100 100 100 100 100 100 100 100 100 100 100 100 100 100 100 100 100 100 100 16 100
5 0 0 5 64 99 100 100 100 100 100 100 100 100 100 100 100 100 100 100 100 100 100 100 100 100 100 100 100 100 100 100 94
34 2 0 1 36 100 100 100 100 100 100 100 100 100 100 100 100 100 100 100 100 100 100 100 100 100 100 100 100 100 100 100 100
100 95 19 18 23 87 99 100 100 100 100 100 100 100 100 100 100 100 100 100 100 100 100 100 100 100 100 100 100 100 100 100 100
31 100 100 34 73 14 59 99 100 100 100 100 100 100 100 100 100 100 100 100 100 100 100 100 100 100 100 100 100 100 100 100 100